Previsão horária em Abazivka

Hoje, 11 Abril, Domingo

Tempo Temperatura Precipitação Vento Pressão Humidade
00:00 +6°C° 0 mm 2 m/s 757 mmHg 55%
01:00 +5°C° 0 mm 2 m/s 757 mmHg 57%
02:00 +5°C° 0 mm 2 m/s 757 mmHg 58%
03:00 +4°C° 0 mm 2 m/s 757 mmHg 59%
04:00 +3°C° 0 mm 3 m/s 757 mmHg 60%
05:00 +3°C° 0 mm 3 m/s 757 mmHg 61%
06:00 +5°C° 0 mm 3 m/s 757 mmHg 57%
07:00 +7°C° 0 mm 3 m/s 758 mmHg 52%
08:00 +8°C° 0 mm 4 m/s 758 mmHg 47%
09:00 +10°C° 0 mm 4 m/s 758 mmHg 43%
10:00 +11°C° 0 mm 4 m/s 758 mmHg 39%
11:00 +13°C° 0 mm 4 m/s 758 mmHg 35%
12:00 +13°C° 0 mm 5 m/s 757 mmHg 33%
13:00 +14°C° 0 mm 5 m/s 757 mmHg 32%
14:00 +14°C° 0 mm 5 m/s 757 mmHg 30%
15:00 +14°C° 0 mm 5 m/s 756 mmHg 32%
16:00 +14°C° 0 mm 5 m/s 756 mmHg 34%
17:00 +14°C° 0 mm 5 m/s 756 mmHg 36%
18:00 +12°C° 0 mm 4 m/s 756 mmHg 41%
19:00 +11°C° 0 mm 4 m/s 756 mmHg 46%
20:00 +9°C° 0 mm 3 m/s 756 mmHg 51%
21:00 +9°C° 0 mm 3 m/s 756 mmHg 53%
22:00 +8°C° 0 mm 3 m/s 756 mmHg 55%
23:00 +8°C° 0 mm 3 m/s 756 mmHg 58%

Amanhã, 12 Abril, Segunda-feira

Tempo Temperatura Precipitação Vento Pressão Humidade
00:00 +7°C° 0 mm 3 m/s 756 mmHg 59%
01:00 +6°C° 0 mm 4 m/s 755 mmHg 60%
02:00 +6°C° 0 mm 4 m/s 755 mmHg 62%
03:00 +6°C° 0 mm 4 m/s 755 mmHg 63%
04:00 +6°C° 0 mm 4 m/s 754 mmHg 64%
05:00 +6°C° 0 mm 4 m/s 754 mmHg 66%
06:00 +7°C° 0.1 mm 4 m/s 754 mmHg 68%
07:00 +7°C° 0.1 mm 4 m/s 754 mmHg 71%
08:00 +7°C° 0.1 mm 4 m/s 753 mmHg 74%
09:00 +10°C° 0 mm 4 m/s 753 mmHg 71%
10:00 +12°C° 0 mm 4 m/s 753 mmHg 69%
11:00 +14°C° 0 mm 4 m/s 753 mmHg 66%
12:00 +15°C° 0 mm 4 m/s 752 mmHg 62%
13:00 +17°C° 0 mm 4 m/s 752 mmHg 58%
14:00 +19°C° 0 mm 3 m/s 752 mmHg 54%
15:00 +19°C° 0 mm 3 m/s 752 mmHg 54%
16:00 +19°C° 0 mm 2 m/s 751 mmHg 54%
17:00 +19°C° 0 mm 2 m/s 751 mmHg 55%
18:00 +18°C° 0 mm 3 m/s 751 mmHg 57%
19:00 +17°C° 0 mm 4 m/s 751 mmHg 60%
20:00 +15°C° 0 mm 5 m/s 751 mmHg 63%
21:00 +14°C° 0 mm 5 m/s 751 mmHg 66%
22:00 +13°C° 0 mm 4 m/s 751 mmHg 70%
23:00 +13°C° 0 mm 4 m/s 751 mmHg 74%

Depois de amanhã, 13 Abril, Terça-feira

Tempo Temperatura Precipitação Vento Pressão Humidade
00:00 +12°C° 0 mm 4 m/s 751 mmHg 77%
01:00 +12°C° 0 mm 4 m/s 751 mmHg 80%
02:00 +11°C° 0 mm 4 m/s 751 mmHg 84%
03:00 +11°C° 0 mm 4 m/s 751 mmHg 85%
04:00 +11°C° 0 mm 3 m/s 751 mmHg 87%
05:00 +10°C° 0 mm 3 m/s 752 mmHg 88%
06:00 +11°C° 0 mm 3 m/s 752 mmHg 85%
07:00 +11°C° 0 mm 3 m/s 752 mmHg 81%
08:00 +12°C° 0 mm 3 m/s 752 mmHg 78%
09:00 +13°C° 0 mm 4 m/s 752 mmHg 74%
10:00 +13°C° 0 mm 4 m/s 752 mmHg 69%
11:00 +14°C° 0 mm 4 m/s 752 mmHg 65%
12:00 +14°C° 0 mm 4 m/s 752 mmHg 63%
13:00 +15°C° 0 mm 4 m/s 752 mmHg 62%
14:00 +15°C° 0 mm 4 m/s 752 mmHg 60%
15:00 +16°C° 0 mm 3 m/s 752 mmHg 61%
16:00 +16°C° 0 mm 3 m/s 752 mmHg 62%
17:00 +14°C° 0 mm 3 m/s 751 mmHg 63%
18:00 +15°C° 0 mm 2 m/s 751 mmHg 65%
19:00 +14°C° 0 mm 2 m/s 752 mmHg 68%
20:00 +14°C° 0 mm 2 m/s 752 mmHg 71%
21:00 +13°C° 0 mm 2 m/s 751 mmHg 72%
22:00 +13°C° 0 mm 1 m/s 751 mmHg 73%
23:00 +13°C° 0 mm 1 m/s 751 mmHg 74%

14 Abril, Quarta-feira

Tempo Temperatura Precipitação Vento Pressão Humidade
00:00 +13°C° 0 mm 1 m/s 751 mmHg 75%
01:00 +13°C° 0 mm 1 m/s 750 mmHg 75%
02:00 +12°C° 0 mm 1 m/s 750 mmHg 76%
03:00 +12°C° 0 mm 1 m/s 750 mmHg 76%
04:00 +11°C° 0 mm 0 m/s 750 mmHg 77%
05:00 +11°C° 0 mm 0 m/s 750 mmHg 77%
06:00 +12°C° 0 mm 1 m/s 750 mmHg 75%
07:00 +13°C° 0 mm 1 m/s 750 mmHg 73%
08:00 +13°C° 0 mm 1 m/s 750 mmHg 71%
09:00 +14°C° 0 mm 2 m/s 750 mmHg 66%
10:00 +15°C° 0 mm 2 m/s 750 mmHg 62%
11:00 +16°C° 0 mm 3 m/s 750 mmHg 58%
12:00 +16°C° 0.1 mm 3 m/s 749 mmHg 57%
13:00 +17°C° 0.1 mm 3 m/s 749 mmHg 55%
14:00 +17°C° 0.1 mm 3 m/s 749 mmHg 54%
15:00 +16°C° 0 mm 2 m/s 749 mmHg 57%
16:00 +16°C° 0 mm 2 m/s 749 mmHg 60%
17:00 +15°C° 0 mm 2 m/s 749 mmHg 62%
18:00 +15°C° 0 mm 2 m/s 749 mmHg 65%
19:00 +14°C° 0 mm 2 m/s 749 mmHg 68%
20:00 +14°C° 0 mm 2 m/s 749 mmHg 70%
21:00 +13°C° 0.2 mm 2 m/s 749 mmHg 75%
22:00 +13°C° 0.2 mm 2 m/s 748 mmHg 79%
23:00 +12°C° 0.2 mm 2 m/s 748 mmHg 83%

15 Abril, Quinta-feira

Tempo Temperatura Precipitação Vento Pressão Humidade
00:00 +12°C° 0.1 mm 2 m/s 748 mmHg 83%
01:00 +12°C° 0.1 mm 2 m/s 748 mmHg 83%
02:00 +12°C° 0.1 mm 2 m/s 747 mmHg 83%
03:00 +12°C° 0.1 mm 2 m/s 747 mmHg 83%
04:00 +10°C° 0.1 mm 2 m/s 747 mmHg 84%
05:00 +10°C° 0.1 mm 2 m/s 747 mmHg 85%
06:00 +12°C° 0.1 mm 2 m/s 747 mmHg 82%
07:00 +12°C° 0.1 mm 1 m/s 747 mmHg 80%
08:00 +12°C° 0.1 mm 1 m/s 747 mmHg 77%
09:00 +12°C° 0.1 mm 1 m/s 746 mmHg 77%
10:00 +12°C° 0.1 mm 1 m/s 746 mmHg 76%
11:00 +13°C° 0.1 mm 1 m/s 746 mmHg 75%
12:00 +12°C° 0.4 mm 1 m/s 746 mmHg 77%
13:00 +12°C° 0.4 mm 1 m/s 745 mmHg 80%
14:00 +12°C° 0.4 mm 1 m/s 745 mmHg 82%
15:00 +12°C° 0.3 mm 1 m/s 745 mmHg 83%
16:00 +12°C° 0.3 mm 1 m/s 745 mmHg 84%
17:00 +12°C° 0.3 mm 1 m/s 745 mmHg 85%
18:00 +11°C° 0.2 mm 1 m/s 744 mmHg 86%
19:00 +11°C° 0.2 mm 1 m/s 744 mmHg 87%
20:00 +11°C° 0.2 mm 1 m/s 744 mmHg 88%
21:00 +11°C° 0.1 mm 1 m/s 744 mmHg 87%
22:00 +11°C° 0.1 mm 1 m/s 743 mmHg 87%
23:00 +10°C° 0.1 mm 1 m/s 743 mmHg 87%

16 Abril, Sexta-feira

Tempo Temperatura Precipitação Vento Pressão Humidade
00:00 +10°C° 0.1 mm 1 m/s 743 mmHg 88%
01:00 +10°C° 0.1 mm 1 m/s 742 mmHg 89%
02:00 +10°C° 0.1 mm 1 m/s 742 mmHg 90%
03:00 +10°C° 0.2 mm 1 m/s 742 mmHg 91%
04:00 +10°C° 0.2 mm 1 m/s 742 mmHg 92%
05:00 +9°C° 0.2 mm 2 m/s 742 mmHg 93%
06:00 +8°C° 0.4 mm 2 m/s 742 mmHg 92%
07:00 +8°C° 0.4 mm 3 m/s 742 mmHg 92%
08:00 +7°C° 0.4 mm 4 m/s 742 mmHg 92%
09:00 +8°C° 0.3 mm 3 m/s 743 mmHg 89%
10:00 +8°C° 0.3 mm 3 m/s 743 mmHg 87%
11:00 +8°C° 0.3 mm 2 m/s 743 mmHg 85%
12:00 +8°C° 1.1 mm 2 m/s 743 mmHg 86%
13:00 +8°C° 1.1 mm 2 m/s 744 mmHg 87%
14:00 +8°C° 1.1 mm 2 m/s 744 mmHg 89%
15:00 +8°C° 0.7 mm 2 m/s 744 mmHg 89%
16:00 +8°C° 0.7 mm 3 m/s 744 mmHg 89%
17:00 +8°C° 0.7 mm 3 m/s 745 mmHg 89%
18:00 +7°C° 0 mm 4 m/s 745 mmHg 89%
19:00 +6°C° 0 mm 5 m/s 746 mmHg 88%
20:00 +5°C° 0 mm 6 m/s 747 mmHg 88%
21:00 +4°C° 0 mm 6 m/s 747 mmHg 89%
22:00 +4°C° 0 mm 7 m/s 748 mmHg 89%
23:00 +3°C° 0 mm 7 m/s 748 mmHg 90%
Mostrar mais